Regional Weather Roundup
Issued by NWS Jackson, KY

Home | Current Version | Previous Version | Text Only | Print | Product List | Glossary Off
Versions: 1 2 3 4 5 6 7 8 9 10 11 12 13 14 15 16 17 18 19 20 21 22 23 24 25 26 27

000
ASUS43 KJKL 190810
RWRJKL

EAST KENTUCKY HOURLY WEATHER ROUNDUP
NATIONAL WEATHER SERVICE JACKSON KY
400 AM EDT THU APR 19 2018

NOTE: "FAIR" INDICATES FEW OR NO CLOUDS BELOW 12,000 FEET WITH
NO SIGNIFICANT WEATHER AND/OR OBSTRUCTIONS TO VISIBILITY.

* THESE REPORTS ARE NOT UNDER NWS QUALITY CONTROL AND MAY NOT
  REPORT WEATHER SUCH AS PRECIPITATION AND FOG.

KYZ079-080-083-085-087-088-110-112-115-119-120-190900
...EASTERN KENTUCKY...

CITY           SKY/WX    TMP DP  RH WIND       PRES   REMARKS
JACKSON        CLOUDY    47  37  68 W13G25    29.88R
LONDON         CLOUDY    48  32  53 NW12G22   29.92R
SOMERSET*      CLOUDY    46  34  61 W12G18    29.97R
MONTICELLO*    CLOUDY    48  38  68 NW13      29.97R
WILLIAMSBURG*  CLOUDY    48  39  71 W9        29.94R
MIDDLESBORO*   CLOUDY    52  44  75 NW10      29.91R
HARLAN APT*    CLOUDY    51  44  78 W13       29.89R
PIKE CO APT*   CLOUDY    47  46  97 NW13G18   29.85R
BIG SANDY APT* CLOUDY    49  42  79 W7        29.86R
MOREHEAD APT*  CLOUDY    46  36  66 NW12G20   29.90R
ASHLAND*       CLOUDY    49  38  65 NW13G23   29.85R
$$

KYZ035-036-041-042-044-050-067-078-099-190900
...CENTRAL KENTUCKY...

CITY           SKY/WX    TMP DP  RH WIND       PRES   REMARKS
MT STERLING*   CLOUDY    43  34  70 W13G25    29.93R
FLEMING/MASON* CLOUDY    43  33  67 NW13G23   29.89R
DANVILLE*      CLOUDY    43  32  65 NW12G17   29.97R
LEXINGTON      CLOUDY    42  30  62 W18G33    29.95R
FRANKFORT      CLOUDY    42  27  55 W12G28    29.94R
LOUISVILLE     CLOUDY    42  28  57 NW18G28   30.00R
GLASGOW*       CLOUDY    46  33  61 NW9       30.00R
BOWLING GREEN  CLOUDY    47  34  60 NW10G24   30.03R
$$

KYZ091>093-OHZ055-061-077-WVZ005-015-034-035-042-190900
...SOUTHERN OHIO/WEST VIRGINIA...

CITY           SKY/WX    TMP DP  RH WIND       PRES   REMARKS
COVINGTON      CLOUDY    40  29  64 W17       29.91R WCI  31
COLUMBUS       CLOUDY    39  35  86 W10       29.80R WCI  32
DAYTON         CLOUDY    37  31  78 W24       29.86S WCI  26
WILMINGTON     CLOUDY    39  32  76 W18G25    29.86R WCI  30
HUNTINGTON     CLOUDY    49  34  56 W9G24     29.84R
CHARLESTON     LGT RAIN  51  48  89 W9        29.80R
PINEVILLE*     RAIN      53  49  86 MISG        N/A
BECKLEY        RAIN      49  47  93 N13       29.76R FOG
BLUEFIELD      HVY RAIN  52  49  89 NW14G25   29.76R FOG
LOGAN CO APT*  LGT RAIN  48  46  93 NW7G17    29.80R
$$

VAZ002-007-008-TNZ017-027-036-066-071-190900
...SOUTHWEST VIRGINIA/EAST TENNESSEE...

CITY           SKY/WX    TMP DP  RH WIND       PRES   REMARKS
WISE*          CLOUDY    52  52 100 NW15G22   29.84R
JONESVILLE*    CLOUDY    54  46  76 NW8G18    29.88R
ABINGDON*      CLOUDY    60  52  73 NW13G25   29.77S
BRISTOL        CLOUDY    59  53  80 W14G23    29.80R
SEVIERVILLE*   CLOUDY    66  50  55 W8G18     29.82R
KNOXVILLE      LGT RAIN  65  53  65 W17G23    29.84R
LAFOLLETTE*    CLOUDY    54  45  71 VRB6G17   29.95R
OAK RIDGE        N/A     58  50  75 NW8       29.89R
CROSSVILLE       N/A     47  38  71 NW9G21    29.96R
NASHVILLE        N/A     49  36  61 NW8       30.03R
$$

...KEY TO REMARKS...
VSB - VISIBILITY IN MILES
WCI - WIND CHILL INDEX
HX  - HEAT INDEX

$$




USA.gov is the U.S. government's official web portal to all federal, state and local government web resources and services.